Weather History for Nashville, TN

Change the Weather History Date:

Saturday, February 2, 2013

  Actual Average Record
Temperature  
Mean Temperature 34 °F 39 °F  
Max Temperature 44 °F 49 °F 71 °F (1974)
Min Temperature 23 °F 29 °F -13 °F (1951)
Degree Days  
Heating Degree Days 31 26  
Month to date heating degree days 72 52  
Since 1 July heating degree days 2080 2337  
Cooling Degree Days 0 0  
Month to date cooling degree days 0 0  
Year to date cooling degree days 4 0  
Moisture  
Dew Point 25 °F    
Average Humidity 73    
Maximum Humidity 92    
Minimum Humidity 53    
Precipitation  
Precipitation 0.05 in 0.14 in 1.66 in (1939)
Month to date precipitation 0.05 0.28  
Year to date precipitation 7.19 4.03  
Snow  
Snow 0.20 in 0.10 in 6.50 in (1886)
Month to date snowfall 0.2 0.2  
Since 1 July snowfall 0.5 3.3  
Snow Depth 0.00 in    
Sea Level Pressure  
Sea Level Pressure 30.22 in    
Wind  
Wind Speed 5 mph (South)    
Max Wind Speed 16 mph    
Max Gust Speed 21 mph    
Visibility 8 miles    
Events Snow    
T = Trace of Precipitation, MM = Missing Value Source: NWS Daily Summary

Daily Weather History Graph

Daily Weather History Graph

Search for Another Location

Airport:

Trip Planner

Search our weather history database for the weather conditions in past years. The results will help you decide how hot, cold, wet, or windy it might be!

Date:

Astronomy

Feb. 02, 2013 Rise Set
Actual Time 6:46 AM CST 5:14 PM CST
Civil Twilight 6:19 AM CST 5:41 PM CST
Nautical Twilight 5:49 AM CST 6:12 PM CST
Astronomical Twilight 5:18 AM CST 6:42 PM CST
Moon No Moon Rise 10:10 AM CST (2/2)
Length of Visible Light 11h 22m
Length of Day
10h 28m
Waning Gibbous, 59% of the Moon is Illuminated
Feb 2
Waning Gibbous
Feb 3
Last Quarter
Feb 10
New
Feb 17
First Quarter
Feb 25
Full

Hourly Weather History & Observations

Time (CST) Temp. Windchill Dew Point Humidity Pressure Visibility Wind Dir Wind Speed Gust Speed Precip Events Conditions
12:53 AM 23.0 °F 18.4 °F 16.0 °F 74% 30.35 in 10.0 mi South 3.5 mph - N/A   Overcast
1:53 AM 24.1 °F - 15.1 °F 69% 30.34 in 10.0 mi Calm Calm - N/A   Mostly Cloudy
2:53 AM 24.8 °F - 15.8 °F 69% 30.31 in 10.0 mi Calm Calm - N/A   Overcast
3:53 AM 23.0 °F - 17.1 °F 78% 30.32 in 10.0 mi Calm Calm - N/A   Overcast
4:53 AM 25.0 °F 20.7 °F 18.0 °F 75% 30.30 in 10.0 mi SE 3.5 mph - N/A   Overcast
5:53 AM 26.6 °F 22.6 °F 17.6 °F 69% 30.29 in 10.0 mi Variable 3.5 mph - N/A   Overcast
6:53 AM 27.0 °F 19.5 °F 18.0 °F 69% 30.31 in 1.0 mi South 6.9 mph - 0.00 in Snow Light Snow
7:00 AM 26.6 °F 21.2 °F 19.4 °F 74% 30.29 in 1.0 mi South 4.6 mph - 0.00 in Snow Light Snow
7:07 AM 24.8 °F 17.9 °F 21.2 °F 86% 30.29 in 0.8 mi SSW 5.8 mph - 0.01 in Snow Light Snow
7:41 AM 26.6 °F 18.2 °F 24.8 °F 93% 30.28 in 0.8 mi South 8.1 mph - 0.04 in Snow Light Snow
7:49 AM 26.6 °F 20.0 °F 24.8 °F 93% 30.28 in 1.0 mi South 5.8 mph - 0.04 in Snow Light Snow
7:53 AM 26.1 °F 19.4 °F 24.1 °F 92% 30.30 in 0.8 mi South 5.8 mph - 0.05 in Snow Light Snow
7:59 AM 26.6 °F 21.2 °F 24.8 °F 93% 30.27 in 1.5 mi South 4.6 mph - 0.00 in Snow Light Snow
8:03 AM 26.6 °F 21.2 °F 24.8 °F 93% 30.27 in 3.0 mi South 4.6 mph - 0.00 in Snow Light Snow
8:22 AM 26.6 °F 18.2 °F 24.8 °F 93% 30.27 in 10.0 mi South 8.1 mph - 0.00 in   Overcast
8:39 AM 28.4 °F 18.5 °F 26.6 °F 93% 30.25 in 10.0 mi SSE 11.5 mph - 0.00 in   Overcast
8:53 AM 28.9 °F 18.6 °F 25.0 °F 85% 30.26 in 6.0 mi South 12.7 mph - 0.00 in Snow Light Snow
9:35 AM 30.2 °F 21.3 °F 26.6 °F 86% 30.23 in 10.0 mi South 10.4 mph - 0.00 in   Mostly Cloudy
9:43 AM 30.2 °F 21.3 °F 26.6 °F 86% 30.22 in 10.0 mi South 10.4 mph - 0.00 in   Mostly Cloudy
9:53 AM 30.9 °F 22.8 °F 26.1 °F 82% 30.24 in 10.0 mi South 9.2 mph - 0.00 in   Mostly Cloudy
10:53 AM 36.0 °F 27.5 °F 28.9 °F 76% 30.21 in 10.0 mi SSW 12.7 mph 19.6 mph N/A   Mostly Cloudy
11:53 AM 37.9 °F 29.6 °F 28.0 °F 68% 30.17 in 10.0 mi South 13.8 mph 20.7 mph N/A   Mostly Cloudy
12:53 PM 41.0 °F 35.2 °F 28.0 °F 60% 30.14 in 10.0 mi SSW 9.2 mph - N/A   Mostly Cloudy
1:53 PM 42.1 °F 36.1 °F 27.0 °F 55% 30.12 in 10.0 mi WNW 10.4 mph 17.3 mph N/A   Overcast
2:53 PM 41.0 °F 36.4 °F 30.9 °F 67% 30.11 in 10.0 mi NW 6.9 mph - 0.00 in   Overcast
3:53 PM 41.0 °F - 30.9 °F 67% 30.09 in 10.0 mi Calm Calm - N/A   Overcast
4:53 PM 41.0 °F 38.0 °F 30.9 °F 67% 30.09 in 10.0 mi Variable 4.6 mph - N/A   Partly Cloudy
5:53 PM 37.0 °F 32.4 °F 30.9 °F 79% 30.12 in 10.0 mi NW 5.8 mph - N/A   Partly Cloudy
6:53 PM 37.0 °F 31.6 °F 30.9 °F 79% 30.16 in 10.0 mi WNW 6.9 mph - N/A   Clear
7:53 PM 36.0 °F - 28.9 °F 76% 30.16 in 10.0 mi Calm Calm - N/A   Clear
8:53 PM 35.1 °F - 28.0 °F 76% 30.15 in 10.0 mi Calm Calm - N/A   Scattered Clouds
9:53 PM 37.0 °F - 28.9 °F 73% 30.15 in 10.0 mi Calm Calm - N/A   Mostly Cloudy
10:53 PM 37.0 °F 34.5 °F 28.9 °F 73% 30.14 in 10.0 mi SSW 3.5 mph - N/A   Overcast
11:53 PM 37.9 °F 34.4 °F 28.0 °F 68% 30.13 in 10.0 mi West 4.6 mph - N/A   Overcast